Previsão horária em Jūrmala

Hoje, 19 Junho, Sábado

Tempo Temperatura Precipitação Vento Pressão Humidade
00:00 +18°C° 0 mm 3 m/s 764 mmHg 91%
01:00 +18°C° 0 mm 3 m/s 764 mmHg 92%
02:00 +17°C° 0 mm 3 m/s 764 mmHg 92%
03:00 +17°C° 0 mm 3 m/s 764 mmHg 91%
04:00 +17°C° 0 mm 3 m/s 764 mmHg 89%
05:00 +17°C° 0 mm 3 m/s 764 mmHg 88%
06:00 +19°C° 0 mm 3 m/s 764 mmHg 80%
07:00 +21°C° 0 mm 3 m/s 764 mmHg 72%
08:00 +25°C° 0 mm 3 m/s 764 mmHg 64%
09:00 +26°C° 0 mm 4 m/s 764 mmHg 60%
10:00 +27°C° 0 mm 4 m/s 764 mmHg 55%
11:00 +28°C° 0 mm 4 m/s 764 mmHg 50%
12:00 +29°C° 0 mm 4 m/s 764 mmHg 49%
13:00 +29°C° 0 mm 4 m/s 763 mmHg 47%
14:00 +30°C° 0 mm 4 m/s 763 mmHg 45%
15:00 +30°C° 0 mm 4 m/s 763 mmHg 47%
16:00 +29°C° 0 mm 4 m/s 763 mmHg 49%
17:00 +29°C° 0 mm 4 m/s 762 mmHg 51%
18:00 +28°C° 0 mm 4 m/s 762 mmHg 58%
19:00 +27°C° 0 mm 3 m/s 762 mmHg 66%
20:00 +25°C° 0 mm 3 m/s 762 mmHg 73%
21:00 +24°C° 0 mm 3 m/s 762 mmHg 79%
22:00 +22°C° 0 mm 3 m/s 762 mmHg 84%
23:00 +21°C° 0 mm 3 m/s 762 mmHg 89%

Amanhã, 20 Junho, Domingo

Tempo Temperatura Precipitação Vento Pressão Humidade
00:00 +20°C° 0 mm 3 m/s 762 mmHg 89%
01:00 +20°C° 0 mm 3 m/s 762 mmHg 89%
02:00 +19°C° 0 mm 3 m/s 762 mmHg 89%
03:00 +19°C° 0 mm 3 m/s 762 mmHg 88%
04:00 +19°C° 0 mm 3 m/s 762 mmHg 88%
05:00 +19°C° 0 mm 3 m/s 762 mmHg 88%
06:00 +21°C° 0 mm 4 m/s 762 mmHg 80%
07:00 +23°C° 0 mm 4 m/s 762 mmHg 73%
08:00 +26°C° 0 mm 4 m/s 762 mmHg 65%
09:00 +27°C° 0 mm 4 m/s 762 mmHg 61%
10:00 +28°C° 0 mm 4 m/s 762 mmHg 56%
11:00 +29°C° 0 mm 4 m/s 762 mmHg 52%
12:00 +30°C° 0 mm 4 m/s 762 mmHg 50%
13:00 +30°C° 0 mm 4 m/s 761 mmHg 48%
14:00 +32°C° 0 mm 4 m/s 761 mmHg 47%
15:00 +32°C° 0 mm 4 m/s 761 mmHg 47%
16:00 +32°C° 0 mm 4 m/s 761 mmHg 48%
17:00 +32°C° 0 mm 4 m/s 760 mmHg 48%
18:00 +29°C° 0 mm 4 m/s 760 mmHg 57%
19:00 +28°C° 0 mm 3 m/s 760 mmHg 66%
20:00 +26°C° 0 mm 3 m/s 760 mmHg 75%
21:00 +25°C° 0 mm 3 m/s 760 mmHg 80%
22:00 +24°C° 0 mm 3 m/s 760 mmHg 85%
23:00 +22°C° 0 mm 3 m/s 760 mmHg 90%

Depois de amanhã, 21 Junho, Segunda-feira

Tempo Temperatura Precipitação Vento Pressão Humidade
00:00 +21°C° 0 mm 3 m/s 760 mmHg 91%
01:00 +21°C° 0 mm 2 m/s 760 mmHg 92%
02:00 +20°C° 0 mm 2 m/s 760 mmHg 94%
03:00 +20°C° 0 mm 3 m/s 760 mmHg 93%
04:00 +20°C° 0 mm 3 m/s 760 mmHg 93%
05:00 +20°C° 0 mm 3 m/s 760 mmHg 92%
06:00 +22°C° 0 mm 3 m/s 760 mmHg 85%
07:00 +25°C° 0 mm 4 m/s 760 mmHg 77%
08:00 +26°C° 0 mm 4 m/s 760 mmHg 69%
09:00 +28°C° 0 mm 4 m/s 760 mmHg 64%
10:00 +29°C° 0 mm 4 m/s 760 mmHg 58%
11:00 +30°C° 0 mm 4 m/s 760 mmHg 52%
12:00 +32°C° 0 mm 4 m/s 760 mmHg 49%
13:00 +32°C° 0 mm 4 m/s 759 mmHg 46%
14:00 +33°C° 0 mm 4 m/s 759 mmHg 42%
15:00 +33°C° 0 mm 4 m/s 759 mmHg 43%
16:00 +33°C° 0 mm 4 m/s 759 mmHg 44%
17:00 +33°C° 0 mm 4 m/s 759 mmHg 44%
18:00 +30°C° 0 mm 3 m/s 759 mmHg 51%
19:00 +29°C° 0 mm 3 m/s 759 mmHg 58%
20:00 +27°C° 0 mm 2 m/s 758 mmHg 65%
21:00 +26°C° 0 mm 2 m/s 759 mmHg 69%
22:00 +24°C° 0 mm 3 m/s 759 mmHg 74%
23:00 +22°C° 0 mm 3 m/s 759 mmHg 78%

22 Junho, Terça-feira

Tempo Temperatura Precipitação Vento Pressão Humidade
00:00 +21°C° 0 mm 3 m/s 759 mmHg 82%
01:00 +21°C° 0 mm 3 m/s 759 mmHg 85%
02:00 +20°C° 0 mm 3 m/s 758 mmHg 89%
03:00 +20°C° 0 mm 3 m/s 758 mmHg 90%
04:00 +20°C° 0 mm 3 m/s 758 mmHg 91%
05:00 +21°C° 0 mm 3 m/s 758 mmHg 92%
06:00 +22°C° 0 mm 3 m/s 758 mmHg 84%
07:00 +25°C° 0 mm 3 m/s 759 mmHg 77%
08:00 +26°C° 0 mm 3 m/s 759 mmHg 70%
09:00 +28°C° 0 mm 3 m/s 759 mmHg 64%
10:00 +29°C° 0 mm 3 m/s 758 mmHg 59%
11:00 +30°C° 0 mm 3 m/s 758 mmHg 53%
12:00 +32°C° 0.1 mm 4 m/s 759 mmHg 51%
13:00 +32°C° 0.1 mm 4 m/s 759 mmHg 50%
14:00 +33°C° 0.1 mm 4 m/s 759 mmHg 49%
15:00 +32°C° 0.1 mm 4 m/s 759 mmHg 51%
16:00 +32°C° 0.1 mm 4 m/s 759 mmHg 53%
17:00 +32°C° 0.1 mm 4 m/s 759 mmHg 55%
18:00 +29°C° 0.4 mm 3 m/s 759 mmHg 62%
19:00 +28°C° 0.4 mm 3 m/s 759 mmHg 70%
20:00 +27°C° 0.4 mm 2 m/s 759 mmHg 78%
21:00 +26°C° 0.1 mm 2 m/s 760 mmHg 82%
22:00 +24°C° 0.1 mm 2 m/s 760 mmHg 86%
23:00 +23°C° 0.1 mm 2 m/s 760 mmHg 89%

23 Junho, Quarta-feira

Tempo Temperatura Precipitação Vento Pressão Humidade
00:00 +23°C° 0.3 mm 2 m/s 760 mmHg 91%
01:00 +21°C° 0.3 mm 2 m/s 760 mmHg 93%
02:00 +21°C° 0.3 mm 2 m/s 760 mmHg 95%
03:00 +22°C° 0 mm 1 m/s 760 mmHg 94%
04:00 +22°C° 0 mm 1 m/s 760 mmHg 94%
05:00 +22°C° 0 mm 1 m/s 761 mmHg 93%
06:00 +23°C° 0 mm 1 m/s 761 mmHg 87%
07:00 +25°C° 0 mm 2 m/s 761 mmHg 80%
08:00 +26°C° 0 mm 2 m/s 761 mmHg 74%
09:00 +28°C° 0.2 mm 2 m/s 761 mmHg 69%
10:00 +29°C° 0.2 mm 2 m/s 761 mmHg 64%
11:00 +30°C° 0.2 mm 2 m/s 761 mmHg 59%
12:00 +30°C° 0.4 mm 2 m/s 761 mmHg 58%
13:00 +31°C° 0.4 mm 2 m/s 761 mmHg 56%
14:00 +31°C° 0.4 mm 2 m/s 761 mmHg 55%
15:00 +31°C° 0.5 mm 2 m/s 761 mmHg 55%
16:00 +31°C° 0.5 mm 2 m/s 761 mmHg 54%
17:00 +31°C° 0.5 mm 2 m/s 761 mmHg 54%
18:00 +29°C° 0.6 mm 2 m/s 761 mmHg 63%
19:00 +28°C° 0.6 mm 2 m/s 761 mmHg 72%
20:00 +27°C° 0.6 mm 2 m/s 762 mmHg 81%
21:00 +25°C° 0.4 mm 1 m/s 762 mmHg 85%
22:00 +24°C° 0.4 mm 1 m/s 762 mmHg 88%
23:00 +23°C° 0.4 mm 1 m/s 762 mmHg 92%

24 Junho, Quinta-feira

Tempo Temperatura Precipitação Vento Pressão Humidade
00:00 +23°C° 0 mm 1 m/s 762 mmHg 93%
01:00 +22°C° 0 mm 1 m/s 762 mmHg 94%
02:00 +22°C° 0 mm 1 m/s 762 mmHg 95%
03:00 +22°C° 0.3 mm 1 m/s 762 mmHg 95%
04:00 +22°C° 0.3 mm 1 m/s 762 mmHg 95%
05:00 +20°C° 0.3 mm 0 m/s 762 mmHg 95%
06:00 +23°C° 0.1 mm 1 m/s 762 mmHg 91%
07:00 +24°C° 0.1 mm 1 m/s 762 mmHg 87%
08:00 +26°C° 0.1 mm 1 m/s 762 mmHg 83%
09:00 +27°C° 0.4 mm 1 m/s 761 mmHg 77%
10:00 +28°C° 0.4 mm 2 m/s 761 mmHg 71%
11:00 +29°C° 0.4 mm 2 m/s 761 mmHg 65%
12:00 +30°C° 0.1 mm 2 m/s 761 mmHg 61%
13:00 +31°C° 0.1 mm 2 m/s 761 mmHg 56%
14:00 +33°C° 0.1 mm 3 m/s 760 mmHg 52%
15:00 +32°C° 0.3 mm 2 m/s 760 mmHg 52%
16:00 +32°C° 0.3 mm 2 m/s 760 mmHg 53%
17:00 +32°C° 0.3 mm 2 m/s 759 mmHg 54%
18:00 +29°C° 1.8 mm 2 m/s 759 mmHg 66%
19:00 +27°C° 1.8 mm 3 m/s 759 mmHg 78%
20:00 +24°C° 1.8 mm 3 m/s 759 mmHg 91%
21:00 +22°C° 1.2 mm 3 m/s 759 mmHg 93%
22:00 +21°C° 1.2 mm 2 m/s 759 mmHg 95%
23:00 +21°C° 1.2 mm 2 m/s 759 mmHg 97%
Mostrar mais

Necessitamos do seu Consentimento

A Meteoprog e os seus Fornecedores de Serviços podem armazenar e aceder a dados pessoais como cookies, identificadores do dispositivo ou outras tecnologias semelhantes existentes no seu dispositivo e processar estes dados para personalizar conteúdos e anúncios, assim como funcionalidades nas redes sociais e análise de tráfego.

  • Armazenar e/ou aceder a informações no seu dispositivo

    Os cookies, identificadores do dispositivo ou outras informações podem ser armazenados ou acedidos no seu dispositivo, para os fins acima indicados.

  • Anúncios e conteúdos personalizados, medição de anúncios e conteúdos, dados sobre o público-alvo e desenvolvimento de produtos

    Os anúncios e os conteúdos podem ser personalizados com base num perfil. Podem ser adicionados dados adicionais para uma maior personalização dos anúncios e dos conteúdos. A eficácia dos anúncios e dos conteúdos pode ser medida. Podem ser obtidas informações sobre o público que visualizou os anúncios e os conteúdos. Estes dados podem ser usados para desenvolver ou melhorar sistemas, softwares ou a experiência do utilizador.

Ao clicar em "Eu concordo”, permitirá o uso de cookies, identificadores do dispositivo e web beacons mencionados ou outras tecnologias semelhantes. As configurações do navegador do seu dispositivo podem ser alteradas.

Para certos fins, podem ser invocados interesses legítimos ao invés de consentimento. Pode ler mais informação sobre este assunto na nossa Política de Privacidade e Cookies.